NOAA 16 DEB, 41080

Orbit data source: Space-Track

NOAA 16 DEB, 41080 is space debris in SSO originally from a launch on Thu, 21 Sep 2000 UTC launched from the Air Force Western Test Range (AFWTR). Debris objects in space refer to the collection of defunct objects orbiting the Earth. Examples of debris include non-operational satellites, rocket bodies, and fragments generated from explosions, collisions, or faulty payload assembly.

Loading next visibility...
Identifier
41080, 2000-055AP
Orbit
SSO
Country
Flag of USUS
Related business
Manufacturer
Unknown
Mission
Spacecraft
Bus & Motor
Unknown
Mass
Unknown
Launch date (UTC)
2000-09-21 (26 years ago)
Launch vehicle
Unknown
Launch site
Air Force Western Test Range (AFWTR)
Object type
Payload
Rocket body
Debris
Shape & HBR
Unknown shape, 0.1 m
Radar Cross Section
Small (<0.1 m²)

Expand to show TLE details & history
Last TLE update: 22 hours ago

TLE from 22 hours ago
0 NOAA 16 DEB
1 41080U 00055AP  26255.07329399  .00001558  00000-0  69823-3 0  9995
2 41080  98.5150 295.1865 0008021 339.9134  20.1728 14.23901050557251
Epoch: 2026-09-12T01:45Z
TLE epoch observation values (Epoch: 2026-09-12T01:45:32.600Z)
Latitude
-0.00009°
Longitude
-82.28685°
Altitude
809.702 km
Speed
7.451 km/s
True Right ascension
19h 40m 44s
True Declination
0° 00' 00"
Sunlit
Object was in full shadow at epoch
Visualization orbit readout
Latitude
Unknown
Longitude
Unknown
Altitude
Unknown
Speed
Unknown
Apparent Right ascension
Unknown
Apparent Declination
Unknown
Sunlit
N/A
Visualization observer readout
Local Sidereal Time
16:33:39
Azimuth
Unknown
Elevation
Unknown
Doppler factor
Unknown
Orbital elements
Apogee altitude
815.099 km
Perigee altitude
803.569 km
Semi-major axis
7,187.471 km
Eccentricity
0.0008
Inclination
98.515°
RAAN
295.1865°
Arg. of periapsis
339.9134°
True anomaly
20.20453°
Mean anomaly
20.1728°
Eccentric anomaly
20.18866°
Mean motion
3.56188 °/min
Orbital period
101.07 mins
BSTAR
0.00069823
Loading maneuver chart data...
Computing Atmospheric mass density...
Loading historical data...
Loading historical data...
Loading historical data...
Loading historical data...
Loading historical data...
Loading historical data...
Loading historical data...

Documentation

Showing up to 5 results
|